Date String (YYYY-MM-DD hh:mm:ss) UTC,Instrument flags,Ambient pressure (hPa),Sample flow (lpm),Bypass flow (lpm),Sample temperature (°C),Ambient temperature (°C),ASC tube jacket temperature (°C),LED temperature (°C),Box temperature (°C),Sample RH (%),Span deviation,Mass concentration (μg/m³),Mass concentration (μg/m³),Mass concentration (μg/m³)
DateTimeUTC,F1_M11,P_M11,Q1_M11,Q2_M11,T1_M11,T2_M11,T3_M11,T4_M11,T5_M11,U1_M11,ZSPAN_M11,X2_M11,X0_M11,X1_M11
2021-09-07 05:00:00,,0829.6,5.00,0.00,29.4,28.1,00.0,38.4,31.2,08.6,0002.0,0022.67,0030.40,0021.61
2021-09-07 05:01:00,,0829.5,5.00,0.00,29.4,28.3,00.0,38.4,31.2,08.6,0001.5,0022.69,0030.33,0021.62
2021-09-07 05:02:00,,0829.6,5.01,0.00,29.5,28.4,00.0,38.4,31.3,08.5,0001.9,0022.66,0030.13,0021.63
2021-09-07 05:03:00,,0829.6,4.99,0.00,29.5,28.6,00.0,38.5,31.3,08.5,0001.6,0022.72,0030.24,0021.69
2021-09-07 05:04:00,,0829.5,5.01,0.00,29.6,28.7,00.0,38.5,31.4,08.5,0000.6,0022.73,0031.02,0021.69
2021-09-07 05:05:00,,0829.5,5.00,0.00,29.6,28.7,00.0,38.5,31.4,08.5,-000.1,0022.77,0031.41,0021.69
2021-09-07 05:06:00,,0829.5,4.99,0.00,29.6,28.0,00.0,38.5,31.3,08.6,-000.5,0022.78,0032.33,0021.70
2021-09-07 05:07:00,,0829.5,5.01,0.00,29.5,26.4,00.0,38.5,30.9,08.7,-000.8,0022.83,0032.33,0021.73
2021-09-07 05:08:00,,0829.5,5.00,0.00,29.4,26.4,00.0,38.5,30.8,08.8,-000.4,0022.88,0032.28,0021.76
2021-09-07 05:09:00,,0829.5,5.00,0.00,29.3,26.7,00.0,38.5,30.9,08.6,0000.0,0022.91,0032.28,0021.77
2021-09-07 05:10:00,,0829.5,5.00,0.00,29.3,27.1,00.0,38.5,30.9,08.7,0000.1,0022.92,0032.52,0021.77
2021-09-07 05:11:00,,0829.5,5.00,0.00,29.3,27.4,00.0,38.4,31.0,08.7,0000.5,0022.93,0032.46,0021.79
2021-09-07 05:12:00,,0829.5,5.01,0.00,29.3,27.7,00.0,38.4,31.0,08.7,0001.3,0022.90,0032.68,0021.78
2021-09-07 05:13:00,,0829.5,4.99,0.00,29.4,28.0,00.0,38.4,31.1,08.7,0001.2,0022.92,0032.79,0021.81
2021-09-07 05:14:00,,0829.5,5.01,0.00,29.4,28.2,00.0,38.5,31.2,08.7,0001.2,0022.91,0033.51,0021.81
2021-09-07 05:15:00,,0829.5,5.00,0.00,29.4,28.3,00.0,38.5,31.2,08.7,0001.7,0022.96,0033.04,0021.85
2021-09-07 05:16:00,,0829.5,4.99,0.00,29.5,28.5,00.0,38.5,31.3,08.7,0002.0,0022.97,0032.63,0021.85
2021-09-07 05:17:00,,0829.5,5.01,0.00,29.5,28.6,00.0,38.5,31.3,08.6,0002.7,0022.99,0031.59,0021.88
2021-09-07 05:18:00,,0829.5,5.00,0.00,29.6,28.7,00.0,38.5,31.4,08.7,0003.0,0023.00,0031.40,0021.90
2021-09-07 05:19:00,,0829.5,4.99,0.00,29.6,28.7,00.0,38.5,31.4,08.6,0003.1,0023.04,0031.66,0021.94
2021-09-07 05:20:00,,0829.5,5.00,0.00,29.6,28.8,00.0,38.6,31.5,08.4,0002.8,0023.11,0032.20,0021.97
2021-09-07 05:21:00,,0829.5,5.00,0.00,29.6,27.9,00.0,38.6,31.3,08.3,0002.7,0023.13,0032.59,0022.00
2021-09-07 05:22:00,,0829.5,4.99,0.00,29.5,26.4,00.0,38.6,30.9,08.4,0002.2,0023.14,0032.16,0022.03
2021-09-07 05:23:00,,0829.5,5.00,0.00,29.4,26.4,00.0,38.6,30.9,08.6,0001.5,0023.19,0031.81,0022.10
2021-09-07 05:24:00,,0829.5,4.99,0.00,29.4,26.8,00.0,38.5,30.9,08.5,0001.6,0023.24,0031.83,0022.15
2021-09-07 05:25:00,,0829.4,5.01,0.00,29.3,27.2,00.0,38.5,31.0,08.5,0001.9,0023.28,0031.34,0022.15
2021-09-07 05:26:00,,0829.4,5.00,0.00,29.4,27.5,00.0,38.5,31.0,08.5,0001.7,0023.27,0032.05,0022.14
2021-09-07 05:27:00,,0829.4,4.99,0.00,29.4,27.8,00.0,38.5,31.1,08.5,0001.6,0023.25,0032.29,0022.14
2021-09-07 05:28:00,,0829.4,4.99,0.00,29.4,28.0,00.0,38.5,31.2,08.4,0001.4,0023.30,0033.14,0022.19
2021-09-07 05:29:00,,0829.4,5.01,0.00,29.4,28.2,00.0,38.5,31.2,08.5,0001.5,0023.33,0033.57,0022.21
2021-09-07 05:30:00,,0829.3,4.99,0.00,29.5,28.4,00.0,38.5,31.3,08.5,0001.3,0023.36,0034.56,0022.21
2021-09-07 05:31:00,,0829.4,5.00,0.00,29.5,28.5,00.0,38.5,31.3,08.4,0002.1,0023.34,0034.36,0022.21
2021-09-07 05:32:00,,0829.3,5.00,0.00,29.6,28.6,00.0,38.6,31.4,08.4,0002.4,0023.33,0033.72,0022.20
2021-09-07 05:33:00,,0829.4,5.01,0.00,29.6,28.7,00.0,38.6,31.4,08.4,0002.1,0023.34,0033.81,0022.18
2021-09-07 05:34:00,,0829.3,5.00,0.00,29.6,28.7,00.0,38.6,31.4,08.3,0002.1,0023.34,0033.83,0022.15
2021-09-07 05:35:00,,0829.3,5.00,0.00,29.7,28.5,00.0,38.6,31.4,08.2,0001.9,0023.32,0033.89,0022.12
2021-09-07 05:36:00,,0829.2,5.01,0.00,29.6,26.8,00.0,38.6,31.0,08.2,0002.2,0023.34,0033.94,0022.13
2021-09-07 05:37:00,,0829.2,5.01,0.00,29.5,26.3,00.0,38.6,30.8,08.2,0002.4,0023.34,0033.24,0022.15
2021-09-07 05:38:00,,0829.2,4.99,0.00,29.4,26.6,00.0,38.5,30.9,08.3,0002.9,0023.31,0033.60,0022.12
2021-09-07 05:39:00,,0829.2,5.00,0.00,29.3,27.0,00.0,38.5,30.9,08.4,0003.0,0023.27,0032.89,0022.05
2021-09-07 05:40:00,,0829.3,5.00,0.00,29.3,27.3,00.0,38.5,30.9,08.5,0002.7,0023.24,0032.60,0021.98
2021-09-07 05:41:00,,0829.3,5.00,0.00,29.4,27.6,00.0,38.5,31.0,08.5,0002.5,0023.16,0031.33,0021.93
2021-09-07 05:42:00,,0829.2,4.99,0.00,29.4,27.9,00.0,38.5,31.1,08.5,0001.8,0023.12,0031.10,0021.90
2021-09-07 05:43:00,,0829.3,5.00,0.00,29.4,28.1,00.0,38.5,31.2,08.5,0001.8,0023.10,0031.00,0021.90
2021-09-07 05:44:00,,0829.3,4.99,0.00,29.5,28.3,00.0,38.5,31.2,08.5,0001.9,0023.03,0030.86,0021.84
2021-09-07 05:45:00,,0829.2,5.02,0.00,29.5,28.4,00.0,38.5,31.3,08.5,0001.9,0022.93,0030.73,0021.76
2021-09-07 05:46:00,,0829.3,5.00,0.00,29.5,28.5,00.0,38.5,31.3,08.4,0001.5,0022.86,0030.60,0021.69
2021-09-07 05:47:00,,0829.2,5.00,0.00,29.6,28.6,00.0,38.6,31.4,08.3,0001.1,0022.73,0030.21,0021.59
2021-09-07 05:48:00,,0829.3,4.99,0.00,29.6,28.7,00.0,38.6,31.4,08.3,0000.7,0022.58,0029.93,0021.47
2021-09-07 05:49:00,,0829.3,4.99,0.00,29.7,28.7,00.0,38.6,31.4,08.3,0000.3,0022.51,0029.09,0021.41
2021-09-07 05:50:00,,0829.4,5.01,0.00,29.7,28.8,00.0,38.6,31.5,08.3,0000.4,0022.46,0028.98,0021.37
2021-09-07 05:51:00,,0829.4,5.00,0.00,29.7,27.6,00.0,38.6,31.2,08.3,0000.2,0022.39,0028.94,0021.32
2021-09-07 05:52:00,,0829.2,5.01,0.00,29.5,26.3,00.0,38.6,30.9,08.4,0000.7,0022.36,0028.82,0021.29
2021-09-07 05:53:00,,0829.2,5.00,0.00,29.5,26.4,00.0,38.6,30.9,08.4,0001.0,0022.26,0028.61,0021.23
2021-09-07 05:54:00,,0829.2,4.99,0.00,29.4,26.8,00.0,38.6,31.0,08.4,0001.0,0022.14,0028.52,0021.14
2021-09-07 05:55:00,,0829.2,5.00,0.00,29.4,27.2,00.0,38.5,31.0,08.5,0001.1,0022.11,0028.52,0021.11
2021-09-07 05:56:00,,0829.2,5.01,0.00,29.4,27.5,00.0,38.5,31.0,08.5,0001.9,0022.11,0028.57,0021.09
2021-09-07 05:57:00,,0829.3,5.00,0.00,29.4,27.8,00.0,38.5,31.1,08.5,0002.1,0022.08,0028.55,0021.06
2021-09-07 05:58:00,,0829.2,5.00,0.00,29.4,28.0,00.0,38.5,31.2,08.5,0001.8,0022.12,0028.70,0021.06
2021-09-07 05:59:00,,0829.2,4.99,0.00,29.5,28.2,00.0,38.5,31.2,08.5,0001.8,0022.17,0028.78,0021.07
